Location: Heisler
(52.6701°N, 112.2239°W)
Time: 16:24:35
(UTC+00:00)

N. Korean satellite - Pass Details

Date: 09 December 2021
Orbit: 446 x 492 km, 97.3° (Epoch: 16 January)

Event Time Altitude Azimuth Distance (km) Brightness Sun altitude
Rises 11:44:42 0° 29° (NNE) 2,465 10.6 -32.5°
Reaches altitude 10° 11:47:32 10° 56° (NE) 1,584 9.8 -32.1°
Maximum altitude 11:49:23 14° 90° (E) 1,355 9.6 -31.8°
Drops below altitude 10° 11:51:14 10° 123° (ESE) 1,577 9.7 -31.5°
Sets 11:54:03 0° 150° (SSE) 2,445 10.5 -31.1°
